Location: Unspecified
(50.7693°N, 0.0000°E)
Time: 17:54:48
(UTC+00:00)

Transit 4A - Pass Details

Date: 25 June 2019
Orbit: 862 x 982 km, 66.8° (Epoch: 15 July)

Event Time Altitude Azimuth Distance (km) Brightness Sun altitude
Rises 14:53:47 0° 322° (NW) 3,698 11.2 47.2°
Reaches altitude 10° 14:56:28 10° 327° (NNW) 2,743 10.6 46.8°
Maximum altitude 15:02:45 52° 43° (NE) 1,191 8.7 45.9°
Drops below altitude 10° 15:08:52 10° 120° (ESE) 2,681 10.1 45.0°
Sets 15:11:27 0° 125° (SE) 3,607 10.7 44.6°
